Year,Month,Day,Hour,Minute,Value (Times are PST for temperature in C)
2017,04,16,00,00,3.50
2017,04,16,00,01,3.50
2017,04,16,00,02,3.50
2017,04,16,00,03,3.50
2017,04,16,00,04,3.50
2017,04,16,00,05,3.50
2017,04,16,00,06,3.60
2017,04,16,00,07,3.60
2017,04,16,00,08,3.60
2017,04,16,00,09,3.60
2017,04,16,00,10,3.60
2017,04,16,00,11,3.60
2017,04,16,00,12,3.70
2017,04,16,00,13,3.70
2017,04,16,00,14,3.70
2017,04,16,00,15,3.70
2017,04,16,00,16,3.70
2017,04,16,00,17,3.70
2017,04,16,00,18,3.70
2017,04,16,00,19,3.60
2017,04,16,00,20,3.60
2017,04,16,00,21,3.60
2017,04,16,00,22,3.60
2017,04,16,00,23,3.60
2017,04,16,00,24,3.60
2017,04,16,00,25,3.50
2017,04,16,00,26,3.50
2017,04,16,00,27,3.50
2017,04,16,00,28,3.40
2017,04,16,00,29,3.40
2017,04,16,00,30,3.40
2017,04,16,00,31,3.40
2017,04,16,00,32,3.40
2017,04,16,00,33,3.40
2017,04,16,00,34,3.40
2017,04,16,00,35,3.40
2017,04,16,00,36,3.40
2017,04,16,00,37,3.40
2017,04,16,00,38,3.40
2017,04,16,00,39,3.40
2017,04,16,00,40,3.40
2017,04,16,00,41,3.40
2017,04,16,00,42,3.40
2017,04,16,00,43,3.40
2017,04,16,00,44,3.50
2017,04,16,00,45,3.50
2017,04,16,00,46,3.50
2017,04,16,00,47,3.50
2017,04,16,00,48,3.50
2017,04,16,00,49,3.50
2017,04,16,00,50,3.50
2017,04,16,00,51,3.40
2017,04,16,00,52,3.40
2017,04,16,00,53,3.40
2017,04,16,00,54,3.40
2017,04,16,00,55,3.40
2017,04,16,00,56,3.40
2017,04,16,00,57,3.40
2017,04,16,00,58,3.30
2017,04,16,00,59,3.30
2017,04,16,01,00,3.30
2017,04,16,01,01,3.20
2017,04,16,01,02,3.20
2017,04,16,01,03,3.20
2017,04,16,01,04,3.20
2017,04,16,01,05,3.20
2017,04,16,01,06,3.20
2017,04,16,01,07,3.20
2017,04,16,01,08,3.10
2017,04,16,01,09,3.10
2017,04,16,01,10,3.10
2017,04,16,01,11,3.10
2017,04,16,01,12,3.10
2017,04,16,01,13,3.20
2017,04,16,01,14,3.20
2017,04,16,01,15,3.20
2017,04,16,01,16,3.20
2017,04,16,01,17,3.20
2017,04,16,01,18,3.20
2017,04,16,01,19,3.20
2017,04,16,01,20,3.20
2017,04,16,01,21,3.10
2017,04,16,01,22,3.10
2017,04,16,01,23,3.10
2017,04,16,01,24,3.10
2017,04,16,01,25,3.10
2017,04,16,01,26,3.10
2017,04,16,01,27,3.10
2017,04,16,01,28,3.10
2017,04,16,01,29,3.00
2017,04,16,01,30,3.00
2017,04,16,01,31,3.00
2017,04,16,01,32,3.00
2017,04,16,01,33,3.00
2017,04,16,01,34,3.00
2017,04,16,01,35,3.00
2017,04,16,01,36,3.00
2017,04,16,01,37,3.00
2017,04,16,01,38,3.00
2017,04,16,01,39,3.00
2017,04,16,01,40,3.00
2017,04,16,01,41,3.00
2017,04,16,01,42,3.00
2017,04,16,01,43,3.00
2017,04,16,01,44,3.00
2017,04,16,01,45,2.90
2017,04,16,01,46,2.90
2017,04,16,01,47,2.90
2017,04,16,01,48,2.90
2017,04,16,01,49,2.90
2017,04,16,01,50,2.90
2017,04,16,01,51,2.90
2017,04,16,01,52,2.90
2017,04,16,01,53,2.90
2017,04,16,01,54,2.90
2017,04,16,01,55,2.90
2017,04,16,01,56,2.80
2017,04,16,01,57,2.80
2017,04,16,01,58,2.80
2017,04,16,01,59,2.80
2017,04,16,02,00,2.80
2017,04,16,02,01,2.80
2017,04,16,02,02,2.80
2017,04,16,02,03,2.80
2017,04,16,02,04,2.80
2017,04,16,02,05,2.70
2017,04,16,02,06,2.70
2017,04,16,02,07,2.70
2017,04,16,02,08,2.70
2017,04,16,02,09,2.80
2017,04,16,02,10,2.80
2017,04,16,02,11,2.80
2017,04,16,02,12,2.80
2017,04,16,02,13,2.90
2017,04,16,02,14,2.90
2017,04,16,02,15,2.90
2017,04,16,02,16,2.90
2017,04,16,02,17,3.00
2017,04,16,02,18,3.00
2017,04,16,02,19,3.00
2017,04,16,02,20,3.10
2017,04,16,02,21,3.10
2017,04,16,02,22,3.10
2017,04,16,02,23,3.20
2017,04,16,02,24,3.20
2017,04,16,02,25,3.20
2017,04,16,02,26,3.30
2017,04,16,02,27,3.30
2017,04,16,02,28,3.30
2017,04,16,02,29,3.40
2017,04,16,02,30,3.40
2017,04,16,02,31,3.50
2017,04,16,02,32,3.60
2017,04,16,02,33,3.70
2017,04,16,02,34,3.70
2017,04,16,02,35,3.80
2017,04,16,02,36,3.80
2017,04,16,02,37,3.90
2017,04,16,02,38,4.00
2017,04,16,02,39,4.10
2017,04,16,02,40,4.10
2017,04,16,02,41,4.10
2017,04,16,02,42,4.10
2017,04,16,02,43,4.10
2017,04,16,02,44,4.10
2017,04,16,02,45,4.10
2017,04,16,02,46,4.10
2017,04,16,02,47,4.10
2017,04,16,02,48,4.00
2017,04,16,02,49,4.00
2017,04,16,02,50,4.00
2017,04,16,02,51,3.90
2017,04,16,02,52,3.90
2017,04,16,02,53,3.90
2017,04,16,02,54,3.90
2017,04,16,02,55,3.90
2017,04,16,02,56,3.90
2017,04,16,02,57,3.80
2017,04,16,02,58,3.80
2017,04,16,02,59,3.80
2017,04,16,03,00,3.80
2017,04,16,03,01,3.80
2017,04,16,03,02,3.80
2017,04,16,03,03,3.80
2017,04,16,03,04,3.70
2017,04,16,03,05,3.70
2017,04,16,03,06,3.70
2017,04,16,03,07,3.70
2017,04,16,03,08,3.60
2017,04,16,03,09,3.60
2017,04,16,03,10,3.60
2017,04,16,03,11,3.50
2017,04,16,03,12,3.50
2017,04,16,03,13,3.50
2017,04,16,03,14,3.50
2017,04,16,03,15,3.60
2017,04,16,03,16,3.60
2017,04,16,03,17,3.60
2017,04,16,03,18,3.60
2017,04,16,03,19,3.60
2017,04,16,03,20,3.70
2017,04,16,03,21,3.70
2017,04,16,03,22,3.70
2017,04,16,03,23,3.70
2017,04,16,03,24,3.80
2017,04,16,03,25,3.80
2017,04,16,03,26,3.80
2017,04,16,03,27,3.80
2017,04,16,03,28,3.80
2017,04,16,03,29,3.90
2017,04,16,03,30,3.90
2017,04,16,03,31,3.90
2017,04,16,03,32,3.90
2017,04,16,03,33,3.90
2017,04,16,03,34,3.90
2017,04,16,03,35,4.00
2017,04,16,03,36,4.00
2017,04,16,03,37,4.00
2017,04,16,03,38,4.00
2017,04,16,03,39,4.00
2017,04,16,03,40,4.10
2017,04,16,03,41,4.10
2017,04,16,03,42,4.10
2017,04,16,03,43,4.10
2017,04,16,03,44,4.10
2017,04,16,03,45,4.10
2017,04,16,03,46,4.10
2017,04,16,03,47,4.20
2017,04,16,03,48,4.20
2017,04,16,03,49,4.20
2017,04,16,03,50,4.20
2017,04,16,03,51,4.20
2017,04,16,03,52,4.20
2017,04,16,03,53,4.20
2017,04,16,03,54,4.20
2017,04,16,03,55,4.20
2017,04,16,03,56,4.20
2017,04,16,03,57,4.20
2017,04,16,03,58,4.20
2017,04,16,03,59,4.20
2017,04,16,04,00,4.20
2017,04,16,04,01,4.20
2017,04,16,04,02,4.20
2017,04,16,04,03,4.20
2017,04,16,04,04,4.20
2017,04,16,04,05,4.20
2017,04,16,04,06,4.20
2017,04,16,04,07,4.20
2017,04,16,04,08,4.20
2017,04,16,04,09,4.20
2017,04,16,04,10,4.20
2017,04,16,04,11,4.20
2017,04,16,04,12,4.20
2017,04,16,04,13,4.20
2017,04,16,04,14,4.30
2017,04,16,04,15,4.30
2017,04,16,04,16,4.30
2017,04,16,04,17,4.40
2017,04,16,04,18,4.40
2017,04,16,04,19,4.40
2017,04,16,04,20,4.40
2017,04,16,04,21,4.40
2017,04,16,04,22,4.40
2017,04,16,04,23,4.40
2017,04,16,04,24,4.40
2017,04,16,04,25,4.40
2017,04,16,04,26,4.40
2017,04,16,04,27,4.40
2017,04,16,04,28,4.40
2017,04,16,04,29,4.40
2017,04,16,04,30,4.40
2017,04,16,04,31,4.40
2017,04,16,04,32,4.40
2017,04,16,04,33,4.40
2017,04,16,04,34,4.40
2017,04,16,04,35,4.50
2017,04,16,04,36,4.50
2017,04,16,04,37,4.50
2017,04,16,04,38,4.60
2017,04,16,04,39,4.60
2017,04,16,04,40,4.60
2017,04,16,04,41,4.60
2017,04,16,04,42,4.60
2017,04,16,04,43,4.60
2017,04,16,04,44,4.60
2017,04,16,04,45,4.60
2017,04,16,04,46,4.60
2017,04,16,04,47,4.60
2017,04,16,04,48,4.60
2017,04,16,04,49,4.60
2017,04,16,04,50,4.60
2017,04,16,04,51,4.60
2017,04,16,04,52,4.60
2017,04,16,04,53,4.60
2017,04,16,04,54,4.60
2017,04,16,04,55,4.60
2017,04,16,04,56,4.60
2017,04,16,04,57,4.60
2017,04,16,04,58,4.60
2017,04,16,04,59,4.60
2017,04,16,05,00,4.60
2017,04,16,05,01,4.60
2017,04,16,05,02,4.60
2017,04,16,05,03,4.70
2017,04,16,05,04,4.70
2017,04,16,05,05,4.70
2017,04,16,05,06,4.70
2017,04,16,05,07,4.80
2017,04,16,05,08,4.80
2017,04,16,05,09,4.80
2017,04,16,05,10,4.80
2017,04,16,05,11,4.80
2017,04,16,05,12,4.80
2017,04,16,05,13,4.80
2017,04,16,05,14,4.80
2017,04,16,05,15,4.80
2017,04,16,05,16,4.80
2017,04,16,05,17,4.80
2017,04,16,05,18,4.80
2017,04,16,05,19,4.90
2017,04,16,05,20,4.90
2017,04,16,05,21,4.90
2017,04,16,05,22,4.90
2017,04,16,05,23,4.90
2017,04,16,05,24,4.90
2017,04,16,05,25,4.90
2017,04,16,05,26,5.00
2017,04,16,05,27,5.00
2017,04,16,05,28,5.00
2017,04,16,05,29,5.00
2017,04,16,05,30,5.00
2017,04,16,05,31,5.00
2017,04,16,05,32,5.10
2017,04,16,05,33,5.10
2017,04,16,05,34,5.10
2017,04,16,05,35,5.10
2017,04,16,05,36,5.10
2017,04,16,05,37,5.10
2017,04,16,05,38,5.10
2017,04,16,05,39,5.10
2017,04,16,05,40,5.10
2017,04,16,05,41,5.20
2017,04,16,05,42,5.20
2017,04,16,05,43,5.20
2017,04,16,05,44,5.30
2017,04,16,05,45,5.30
2017,04,16,05,46,5.30
2017,04,16,05,47,5.30
2017,04,16,05,48,5.40
2017,04,16,05,49,5.40
2017,04,16,05,50,5.40
2017,04,16,05,51,5.40
2017,04,16,05,52,5.40
2017,04,16,05,53,5.40
2017,04,16,05,54,5.40
2017,04,16,05,55,5.40
2017,04,16,05,56,5.40
2017,04,16,05,57,5.40
2017,04,16,05,58,5.40
2017,04,16,05,59,5.40
2017,04,16,06,00,5.40
2017,04,16,06,01,5.40
2017,04,16,06,02,5.40
2017,04,16,06,03,5.50
2017,04,16,06,04,5.40
2017,04,16,06,05,5.40
2017,04,16,06,06,5.50
2017,04,16,06,07,5.50
2017,04,16,06,08,5.50
2017,04,16,06,09,5.50
2017,04,16,06,10,5.60
2017,04,16,06,11,5.60
2017,04,16,06,12,5.70
2017,04,16,06,13,5.70
2017,04,16,06,14,5.70
2017,04,16,06,15,5.70
2017,04,16,06,16,5.80
2017,04,16,06,17,5.80
2017,04,16,06,18,5.80
2017,04,16,06,19,5.80
2017,04,16,06,20,5.80
2017,04,16,06,21,5.80
2017,04,16,06,22,5.80
2017,04,16,06,23,5.80
2017,04,16,06,24,5.80
2017,04,16,06,25,5.90
2017,04,16,06,26,5.90
2017,04,16,06,27,5.90
2017,04,16,06,28,5.90
2017,04,16,06,29,5.90
2017,04,16,06,30,5.90
2017,04,16,06,31,5.90
2017,04,16,06,32,5.90
2017,04,16,06,33,5.80
2017,04,16,06,34,5.80
2017,04,16,06,35,5.80
2017,04,16,06,36,5.80
2017,04,16,06,37,5.80
2017,04,16,06,38,5.70
2017,04,16,06,39,5.70
2017,04,16,06,40,5.70
2017,04,16,06,41,5.70
2017,04,16,06,42,5.80
2017,04,16,06,43,5.80
2017,04,16,06,44,5.80
2017,04,16,06,45,5.80
2017,04,16,06,46,5.80
2017,04,16,06,47,5.80
2017,04,16,06,48,5.80
2017,04,16,06,49,5.80
2017,04,16,06,50,5.80
2017,04,16,06,51,5.80
2017,04,16,06,52,5.80
2017,04,16,06,53,5.90
2017,04,16,06,54,5.90
2017,04,16,06,55,5.90
2017,04,16,06,56,5.90
2017,04,16,06,57,6.00
2017,04,16,06,58,6.00
2017,04,16,06,59,6.10
2017,04,16,07,00,6.10
2017,04,16,07,01,6.10
2017,04,16,07,02,6.10
2017,04,16,07,03,6.20
2017,04,16,07,04,6.20
2017,04,16,07,05,6.20
2017,04,16,07,06,6.20
2017,04,16,07,07,6.20
2017,04,16,07,08,6.20
2017,04,16,07,09,6.20
2017,04,16,07,10,6.20
2017,04,16,07,11,6.20
2017,04,16,07,12,6.20
2017,04,16,07,13,6.20
2017,04,16,07,14,6.20
2017,04,16,07,15,6.30
2017,04,16,07,16,6.30
2017,04,16,07,17,6.30
2017,04,16,07,18,6.40
2017,04,16,07,19,6.50
2017,04,16,07,20,6.50
2017,04,16,07,21,6.50
2017,04,16,07,22,6.60
2017,04,16,07,23,6.60
2017,04,16,07,24,6.70
2017,04,16,07,25,6.70
2017,04,16,07,26,6.70
2017,04,16,07,27,6.70
2017,04,16,07,28,6.80
2017,04,16,07,29,6.80
2017,04,16,07,30,6.80
2017,04,16,07,31,6.80
2017,04,16,07,32,6.80
2017,04,16,07,33,6.80
2017,04,16,07,34,6.80
2017,04,16,07,35,6.80
2017,04,16,07,36,6.80
2017,04,16,07,37,6.80
2017,04,16,07,38,6.80
2017,04,16,07,39,6.90
2017,04,16,07,40,6.90
2017,04,16,07,41,6.90
2017,04,16,07,42,6.90
2017,04,16,07,43,6.90
2017,04,16,07,44,6.90
2017,04,16,07,45,7.00
2017,04,16,07,46,7.10
2017,04,16,07,47,7.10
2017,04,16,07,48,7.20
2017,04,16,07,49,7.30
2017,04,16,07,50,7.30
2017,04,16,07,51,7.40
2017,04,16,07,52,7.40
2017,04,16,07,53,7.40
2017,04,16,07,54,7.40
2017,04,16,07,55,7.40
2017,04,16,07,56,7.50
2017,04,16,07,57,7.50
2017,04,16,07,58,7.50
2017,04,16,07,59,7.50
2017,04,16,08,00,7.50
2017,04,16,08,01,7.50
2017,04,16,08,02,7.60
2017,04,16,08,03,7.60
2017,04,16,08,04,7.60
2017,04,16,08,05,7.60
2017,04,16,08,06,7.50
2017,04,16,08,07,7.50
2017,04,16,08,08,7.50
2017,04,16,08,09,7.50
2017,04,16,08,10,7.60
2017,04,16,08,11,7.60
2017,04,16,08,12,7.60
2017,04,16,08,13,7.60
2017,04,16,08,14,7.70
2017,04,16,08,15,7.70
2017,04,16,08,16,7.70
2017,04,16,08,17,7.70
2017,04,16,08,18,7.80
2017,04,16,08,19,7.80
2017,04,16,08,20,7.90
2017,04,16,08,21,7.90
2017,04,16,08,22,7.90
2017,04,16,08,23,8.00
2017,04,16,08,24,8.00
2017,04,16,08,25,8.00
2017,04,16,08,26,8.10
2017,04,16,08,27,8.20
2017,04,16,08,28,8.20
2017,04,16,08,29,8.20
2017,04,16,08,30,8.20
2017,04,16,08,31,8.20
2017,04,16,08,32,8.20
2017,04,16,08,33,8.20
2017,04,16,08,34,8.20
2017,04,16,08,35,8.20
2017,04,16,08,36,8.20
2017,04,16,08,37,8.20
2017,04,16,08,38,8.20
2017,04,16,08,39,8.20
2017,04,16,08,40,8.20
2017,04,16,08,41,8.20
2017,04,16,08,42,8.20
2017,04,16,08,43,8.30
2017,04,16,08,44,8.30
2017,04,16,08,45,8.30
2017,04,16,08,46,8.30
2017,04,16,08,47,8.30
2017,04,16,08,48,8.30
2017,04,16,08,49,8.40
2017,04,16,08,50,8.40
2017,04,16,08,51,8.50
2017,04,16,08,52,8.50
2017,04,16,08,53,8.60
2017,04,16,08,54,8.60
2017,04,16,08,55,8.60
2017,04,16,08,56,8.70
2017,04,16,08,57,8.70
2017,04,16,08,58,8.70
2017,04,16,08,59,8.70
2017,04,16,09,00,8.70
2017,04,16,09,01,8.70
2017,04,16,09,02,8.70
2017,04,16,09,03,8.70
2017,04,16,09,04,8.70
2017,04,16,09,05,8.70
2017,04,16,09,06,8.70
2017,04,16,09,07,8.70
2017,04,16,09,08,8.80
2017,04,16,09,09,8.80
2017,04,16,09,10,8.80
2017,04,16,09,11,8.80
2017,04,16,09,12,8.80
2017,04,16,09,13,8.80
2017,04,16,09,14,8.80
2017,04,16,09,15,8.80
2017,04,16,09,16,8.80
2017,04,16,09,17,8.80
2017,04,16,09,18,8.80
2017,04,16,09,19,8.80
2017,04,16,09,20,8.90
2017,04,16,09,21,8.90
2017,04,16,09,22,8.90
2017,04,16,09,23,8.90
2017,04,16,09,24,8.90
2017,04,16,09,25,8.90
2017,04,16,09,26,8.90
2017,04,16,09,27,8.90
2017,04,16,09,28,8.90
2017,04,16,09,29,8.90
2017,04,16,09,30,9.00
2017,04,16,09,31,9.00
2017,04,16,09,32,9.00
2017,04,16,09,33,8.90
2017,04,16,09,34,9.00
2017,04,16,09,35,9.00
2017,04,16,09,36,9.00
2017,04,16,09,37,9.10
2017,04,16,09,38,9.10
2017,04,16,09,39,9.10
2017,04,16,09,40,9.10
2017,04,16,09,41,9.10
2017,04,16,09,42,9.10
2017,04,16,09,43,9.10
2017,04,16,09,44,9.10
2017,04,16,09,45,9.10
2017,04,16,09,46,9.00
2017,04,16,09,47,9.00
2017,04,16,09,48,8.90
2017,04,16,09,49,8.90
2017,04,16,09,50,9.00
2017,04,16,09,51,9.00
2017,04,16,09,52,9.10
2017,04,16,09,53,9.10
2017,04,16,09,54,9.10
2017,04,16,09,55,9.00
2017,04,16,09,56,9.00
2017,04,16,09,57,9.00
2017,04,16,09,58,8.90
2017,04,16,09,59,9.00
2017,04,16,10,00,9.00
2017,04,16,10,01,9.10
2017,04,16,10,02,9.00
2017,04,16,10,03,9.00
2017,04,16,10,04,8.90
2017,04,16,10,05,8.90
2017,04,16,10,06,9.00
2017,04,16,10,07,8.90
2017,04,16,10,08,8.90
2017,04,16,10,09,8.90
2017,04,16,10,10,9.00
2017,04,16,10,11,9.00
2017,04,16,10,12,9.00
2017,04,16,10,13,9.00
2017,04,16,10,14,9.00
2017,04,16,10,15,9.00
2017,04,16,10,16,9.10
2017,04,16,10,17,9.20
2017,04,16,10,18,9.20
2017,04,16,10,19,9.30
2017,04,16,10,20,9.30
2017,04,16,10,21,9.30
2017,04,16,10,22,9.30
2017,04,16,10,23,9.30
2017,04,16,10,24,9.40
2017,04,16,10,25,9.40
2017,04,16,10,26,9.40
2017,04,16,10,27,9.50
2017,04,16,10,28,9.50
2017,04,16,10,29,9.50
2017,04,16,10,30,9.50
2017,04,16,10,31,9.50
2017,04,16,10,32,9.60
2017,04,16,10,33,9.60
2017,04,16,10,34,9.60
2017,04,16,10,35,9.60
2017,04,16,10,36,9.50
2017,04,16,10,37,9.50
2017,04,16,10,38,9.40
2017,04,16,10,39,9.40
2017,04,16,10,40,9.40
2017,04,16,10,41,9.40
2017,04,16,10,42,9.40
2017,04,16,10,43,9.50
2017,04,16,10,44,9.60
2017,04,16,10,45,9.70
2017,04,16,10,46,9.70
2017,04,16,10,47,9.70
2017,04,16,10,48,9.70
2017,04,16,10,49,9.80
2017,04,16,10,50,9.80
2017,04,16,10,51,9.90
2017,04,16,10,52,9.80
2017,04,16,10,53,9.80
2017,04,16,10,54,9.70
2017,04,16,10,55,9.80
2017,04,16,10,56,9.80
2017,04,16,10,57,9.90
2017,04,16,10,58,9.90
2017,04,16,10,59,9.90
2017,04,16,11,00,10.00
2017,04,16,11,01,10.00
2017,04,16,11,02,10.10
2017,04,16,11,03,10.20
2017,04,16,11,04,10.30
2017,04,16,11,05,10.30
2017,04,16,11,06,10.30
2017,04,16,11,07,10.30
2017,04,16,11,08,10.30
2017,04,16,11,09,10.30
2017,04,16,11,10,10.30
2017,04,16,11,11,10.30
2017,04,16,11,12,10.40
2017,04,16,11,13,10.50
2017,04,16,11,14,10.60
2017,04,16,11,15,10.60
2017,04,16,11,16,10.50
2017,04,16,11,17,10.50
2017,04,16,11,18,10.40
2017,04,16,11,19,10.40
2017,04,16,11,20,10.40
2017,04,16,11,21,10.40
2017,04,16,11,22,10.40
2017,04,16,11,23,10.40
2017,04,16,11,24,10.40
2017,04,16,11,25,10.40
2017,04,16,11,26,10.40
2017,04,16,11,27,10.30
2017,04,16,11,28,10.40
2017,04,16,11,29,10.50
2017,04,16,11,30,10.50
2017,04,16,11,31,10.60
2017,04,16,11,32,10.70
2017,04,16,11,33,10.70
2017,04,16,11,34,10.80
2017,04,16,11,35,10.70
2017,04,16,11,36,10.70
2017,04,16,11,37,10.60
2017,04,16,11,38,10.70
2017,04,16,11,39,10.70
2017,04,16,11,40,10.70
2017,04,16,11,41,10.70
2017,04,16,11,42,10.70
2017,04,16,11,43,10.80
2017,04,16,11,44,10.80
2017,04,16,11,45,10.90
2017,04,16,11,46,10.90
2017,04,16,11,47,10.90
2017,04,16,11,48,10.90
2017,04,16,11,49,10.90
2017,04,16,11,50,10.90
2017,04,16,11,51,11.00
2017,04,16,11,52,11.00
2017,04,16,11,53,11.10
2017,04,16,11,54,11.10
2017,04,16,11,55,11.10
2017,04,16,11,56,11.20
2017,04,16,11,57,11.10
2017,04,16,11,58,11.20
2017,04,16,11,59,11.20
2017,04,16,12,00,11.20
2017,04,16,12,01,11.20
2017,04,16,12,02,11.30
2017,04,16,12,03,11.30
2017,04,16,12,04,11.20
2017,04,16,12,05,11.10
2017,04,16,12,06,11.10
2017,04,16,12,07,11.20
2017,04,16,12,08,11.20
2017,04,16,12,09,11.30
2017,04,16,12,10,11.30
2017,04,16,12,11,11.30
2017,04,16,12,12,11.30
2017,04,16,12,13,11.30
2017,04,16,12,14,11.30
2017,04,16,12,15,11.30
2017,04,16,12,16,11.30
2017,04,16,12,17,11.30
2017,04,16,12,18,11.30
2017,04,16,12,19,11.30
2017,04,16,12,20,11.40
2017,04,16,12,21,11.50
2017,04,16,12,22,11.50
2017,04,16,12,23,11.50
2017,04,16,12,24,11.60
2017,04,16,12,25,11.60
2017,04,16,12,26,11.70
2017,04,16,12,27,11.70
2017,04,16,12,28,11.70
2017,04,16,12,29,11.70
2017,04,16,12,30,11.70
2017,04,16,12,31,11.70
2017,04,16,12,32,11.70
2017,04,16,12,33,11.70
2017,04,16,12,34,11.70
2017,04,16,12,35,11.80
2017,04,16,12,36,11.90
2017,04,16,12,37,12.00
2017,04,16,12,38,12.00
2017,04,16,12,39,12.00
2017,04,16,12,40,12.10
2017,04,16,12,41,12.10
2017,04,16,12,42,12.10
2017,04,16,12,43,12.20
2017,04,16,12,44,12.20
2017,04,16,12,45,12.20
2017,04,16,12,46,12.20
2017,04,16,12,47,12.00
2017,04,16,12,48,11.90
2017,04,16,12,49,11.90
2017,04,16,12,50,12.00
2017,04,16,12,51,12.10
2017,04,16,12,52,12.30
2017,04,16,12,53,12.40
2017,04,16,12,54,12.40
2017,04,16,12,55,12.40
2017,04,16,12,56,12.30
2017,04,16,12,57,12.20
2017,04,16,12,58,12.30
2017,04,16,12,59,12.40
2017,04,16,13,00,12.50
2017,04,16,13,01,12.60
2017,04,16,13,02,12.60
2017,04,16,13,03,12.40
2017,04,16,13,04,12.40
2017,04,16,13,05,12.50
2017,04,16,13,06,12.50
2017,04,16,13,07,12.50
2017,04,16,13,08,12.50
2017,04,16,13,09,12.60
2017,04,16,13,10,12.70
2017,04,16,13,11,12.70
2017,04,16,13,12,12.70
2017,04,16,13,13,12.70
2017,04,16,13,14,12.80
2017,04,16,13,15,12.80
2017,04,16,13,16,12.90
2017,04,16,13,17,13.00
2017,04,16,13,18,13.20
2017,04,16,13,19,13.20
2017,04,16,13,20,13.20
2017,04,16,13,21,13.20
2017,04,16,13,22,13.30
2017,04,16,13,23,13.30
2017,04,16,13,24,13.30
2017,04,16,13,25,13.30
2017,04,16,13,26,13.30
2017,04,16,13,27,13.20
2017,04,16,13,28,13.20
2017,04,16,13,29,13.10
2017,04,16,13,30,13.10
2017,04,16,13,31,13.10
2017,04,16,13,32,13.20
2017,04,16,13,33,13.10
2017,04,16,13,34,13.00
2017,04,16,13,35,12.90
2017,04,16,13,36,12.90
2017,04,16,13,37,13.00
2017,04,16,13,38,13.20
2017,04,16,13,39,13.40
2017,04,16,13,40,13.50
2017,04,16,13,41,13.50
2017,04,16,13,42,13.40
2017,04,16,13,43,13.40
2017,04,16,13,44,13.40
2017,04,16,13,45,13.40
2017,04,16,13,46,13.40
2017,04,16,13,47,13.30
2017,04,16,13,48,13.20
2017,04,16,13,49,13.30
2017,04,16,13,50,13.30
2017,04,16,13,51,13.30
2017,04,16,13,52,13.30
2017,04,16,13,53,13.30
2017,04,16,13,54,13.20
2017,04,16,13,55,13.10
2017,04,16,13,56,13.10
2017,04,16,13,57,13.10
2017,04,16,13,58,13.20
2017,04,16,13,59,13.20
2017,04,16,14,00,13.20
2017,04,16,14,01,13.20
2017,04,16,14,02,13.20
2017,04,16,14,03,13.20
2017,04,16,14,04,13.20
2017,04,16,14,05,13.20
2017,04,16,14,06,13.30
2017,04,16,14,07,13.30
2017,04,16,14,08,13.30
2017,04,16,14,09,13.40
2017,04,16,14,10,13.50
2017,04,16,14,11,13.60
2017,04,16,14,12,13.60
2017,04,16,14,13,13.70
2017,04,16,14,14,13.70
2017,04,16,14,15,13.70
2017,04,16,14,16,13.70
2017,04,16,14,17,13.70
2017,04,16,14,18,13.70
2017,04,16,14,19,13.70
2017,04,16,14,20,13.70
2017,04,16,14,21,13.80
2017,04,16,14,22,13.80
2017,04,16,14,23,13.90
2017,04,16,14,24,14.00
2017,04,16,14,25,14.00
2017,04,16,14,26,14.10
2017,04,16,14,27,14.10
2017,04,16,14,28,14.00
2017,04,16,14,29,13.90
2017,04,16,14,30,13.90
2017,04,16,14,31,13.90
2017,04,16,14,32,13.90
2017,04,16,14,33,14.00
2017,04,16,14,34,14.00
2017,04,16,14,35,14.10
2017,04,16,14,36,14.10
2017,04,16,14,37,14.10
2017,04,16,14,38,14.20
2017,04,16,14,39,14.20
2017,04,16,14,40,14.20
2017,04,16,14,41,14.30
2017,04,16,14,42,14.30
2017,04,16,14,43,14.30
2017,04,16,14,44,14.40
2017,04,16,14,45,14.50
2017,04,16,14,46,14.60
2017,04,16,14,47,14.40
2017,04,16,14,48,14.30
2017,04,16,14,49,14.30
2017,04,16,14,50,14.30
2017,04,16,14,51,14.30
2017,04,16,14,52,14.20
2017,04,16,14,53,14.20
2017,04,16,14,54,14.30
2017,04,16,14,55,14.30
2017,04,16,14,56,14.30
2017,04,16,14,57,14.40
2017,04,16,14,58,14.50
2017,04,16,14,59,14.50
2017,04,16,15,00,14.60
2017,04,16,15,01,14.60
2017,04,16,15,02,14.50
2017,04,16,15,03,14.60
2017,04,16,15,04,14.70
2017,04,16,15,05,14.80
2017,04,16,15,06,14.90
2017,04,16,15,07,15.00
2017,04,16,15,08,15.10
2017,04,16,15,09,15.00
2017,04,16,15,10,14.80
2017,04,16,15,11,14.60
2017,04,16,15,12,14.50
2017,04,16,15,13,14.50
2017,04,16,15,14,14.50
2017,04,16,15,15,14.50
2017,04,16,15,16,14.60
2017,04,16,15,17,14.60
2017,04,16,15,18,14.50
2017,04,16,15,19,14.60
2017,04,16,15,20,14.60
2017,04,16,15,21,14.50
2017,04,16,15,22,14.50
2017,04,16,15,23,14.50
2017,04,16,15,24,14.50
2017,04,16,15,25,14.50
2017,04,16,15,26,14.50
2017,04,16,15,27,14.40
2017,04,16,15,28,14.40
2017,04,16,15,29,14.40
2017,04,16,15,30,14.50
2017,04,16,15,31,14.60
2017,04,16,15,32,14.70
2017,04,16,15,33,14.80
2017,04,16,15,34,14.90
2017,04,16,15,35,14.90
2017,04,16,15,36,14.90
2017,04,16,15,37,15.00
2017,04,16,15,38,15.00
2017,04,16,15,39,15.00
2017,04,16,15,40,15.00
2017,04,16,15,41,15.00
2017,04,16,15,42,14.90
2017,04,16,15,43,14.80
2017,04,16,15,44,14.70
2017,04,16,15,45,14.80
2017,04,16,15,46,14.80
2017,04,16,15,47,14.80
2017,04,16,15,48,14.80
2017,04,16,15,49,14.70
2017,04,16,15,50,14.70
2017,04,16,15,51,14.80
2017,04,16,15,52,14.80
2017,04,16,15,53,14.90
2017,04,16,15,54,14.90
2017,04,16,15,55,14.90
2017,04,16,15,56,14.90
2017,04,16,15,57,14.80
2017,04,16,15,58,14.80
2017,04,16,15,59,14.90
2017,04,16,16,00,15.00
2017,04,16,16,01,15.10
2017,04,16,16,02,15.10
2017,04,16,16,03,15.10
2017,04,16,16,04,15.10
2017,04,16,16,05,15.10
2017,04,16,16,06,15.10
2017,04,16,16,07,15.20
2017,04,16,16,08,15.20
2017,04,16,16,09,15.30
2017,04,16,16,10,15.20
2017,04,16,16,11,15.20
2017,04,16,16,12,15.20
2017,04,16,16,13,15.20
2017,04,16,16,14,15.20
2017,04,16,16,15,15.30
2017,04,16,16,16,15.30
2017,04,16,16,17,15.30
2017,04,16,16,18,15.30
2017,04,16,16,19,15.20
2017,04,16,16,20,15.20
2017,04,16,16,21,15.10
2017,04,16,16,22,15.20
2017,04,16,16,23,15.30
2017,04,16,16,24,15.40
2017,04,16,16,25,15.40
2017,04,16,16,26,15.50
2017,04,16,16,27,15.50
2017,04,16,16,28,15.50
2017,04,16,16,29,15.50
2017,04,16,16,30,15.50
2017,04,16,16,31,15.60
2017,04,16,16,32,15.60
2017,04,16,16,33,15.60
2017,04,16,16,34,15.70
2017,04,16,16,35,15.70
2017,04,16,16,36,15.70
2017,04,16,16,37,15.70
2017,04,16,16,38,15.60
2017,04,16,16,39,15.60
2017,04,16,16,40,15.60
2017,04,16,16,41,15.60
2017,04,16,16,42,15.60
2017,04,16,16,43,15.60
2017,04,16,16,44,15.70
2017,04,16,16,45,15.70
2017,04,16,16,46,15.80
2017,04,16,16,47,15.70
2017,04,16,16,48,15.60
2017,04,16,16,49,15.60
2017,04,16,16,50,15.60
2017,04,16,16,51,15.70
2017,04,16,16,52,15.70
2017,04,16,16,53,15.70
2017,04,16,16,54,15.60
2017,04,16,16,55,15.50
2017,04,16,16,56,15.50
2017,04,16,16,57,15.50
2017,04,16,16,58,15.40
2017,04,16,16,59,15.50
2017,04,16,17,00,15.50
2017,04,16,17,01,15.50
2017,04,16,17,02,15.60
2017,04,16,17,03,15.60
2017,04,16,17,04,15.60
2017,04,16,17,05,15.70
2017,04,16,17,06,15.70
2017,04,16,17,07,15.70
2017,04,16,17,08,15.60
2017,04,16,17,09,15.60
2017,04,16,17,10,15.50
2017,04,16,17,11,15.50
2017,04,16,17,12,15.50
2017,04,16,17,13,15.50
2017,04,16,17,14,15.50
2017,04,16,17,15,15.50
2017,04,16,17,16,15.50
2017,04,16,17,17,15.50
2017,04,16,17,18,15.50
2017,04,16,17,19,15.50
2017,04,16,17,20,15.40
2017,04,16,17,21,15.40
2017,04,16,17,22,15.40
2017,04,16,17,23,15.50
2017,04,16,17,24,15.50
2017,04,16,17,25,15.40
2017,04,16,17,26,15.40
2017,04,16,17,27,15.40
2017,04,16,17,28,15.40
2017,04,16,17,29,15.50
2017,04,16,17,30,15.50
2017,04,16,17,31,15.50
2017,04,16,17,32,15.50
2017,04,16,17,33,15.50
2017,04,16,17,34,15.50
2017,04,16,17,35,15.50
2017,04,16,17,36,15.50
2017,04,16,17,37,15.50
2017,04,16,17,38,15.50
2017,04,16,17,39,15.50
2017,04,16,17,40,15.50
2017,04,16,17,41,15.60
2017,04,16,17,42,15.50
2017,04,16,17,43,15.50
2017,04,16,17,44,15.50
2017,04,16,17,45,15.50
2017,04,16,17,46,15.60
2017,04,16,17,47,15.60
2017,04,16,17,48,15.60